Weather History for Keene, NH

Change the Weather History Date:

Thursday, January 3, 2013

  Actual Average Record
Temperature  
Mean Temperature 3 °F -  
Max Temperature 17 °F 33 °F 59 °F (2000)
Min Temperature -11 °F 14 °F -13 °F (1970)
Degree Days  
Heating Degree Days 62    
Moisture  
Dew Point -5 °F    
Average Humidity 67    
Maximum Humidity 92    
Minimum Humidity 35    
Precipitation  
Precipitation 0.00 in - - ()
Sea Level Pressure  
Sea Level Pressure 30.08 in    
Wind  
Wind Speed 1 mph (South)    
Max Wind Speed 7 mph    
Max Gust Speed -    
Visibility 10 miles    
Events      
Averages and records for this station are not official NWS values.
T = Trace of Precipitation, MM = Missing Value Source: NWS Daily Summary

Daily Weather History Graph

Daily Weather History Graph

Search for Another Location

Airport:

Trip Planner

Search our weather history database for the weather conditions in past years. The results will help you decide how hot, cold, wet, or windy it might be!

Date:

Astronomy

Jan. 03, 2013 Rise Set
Actual Time 7:20 AM EST 4:27 PM EST
Civil Twilight 6:48 AM EST 4:59 PM EST
Nautical Twilight 6:12 AM EST 5:35 PM EST
Astronomical Twilight 5:38 AM EST 6:09 PM EST
Moon 11:10 PM EST (1/3) 10:20 AM EST (1/3)
Length of Visible Light 10h 11m
Length of Day
9h 07m
Waning Gibbous, 65% of the Moon is Illuminated
Jan 3
Waning Gibbous
Jan 4
Last Quarter
Jan 11
New
Jan 18
First Quarter
Jan 26
Full

Hourly Weather History & Observations

Time (EST) Temp. Windchill Dew Point Humidity Pressure Visibility Wind Dir Wind Speed Gust Speed Precip Events Conditions
12:55 AM 1.4 °F - -7.6 °F 66% 30.16 in 10.0 mi Calm Calm - N/A   Clear
1:15 AM 1.4 °F -11.3 °F -5.8 °F 72% 30.16 in 10.0 mi North 6.9 mph - N/A   Clear
1:35 AM -0.4 °F - -9.4 °F 66% 30.16 in 10.0 mi Calm Calm - N/A   Clear
1:55 AM -0.4 °F - -7.6 °F 72% 30.15 in 10.0 mi Calm Calm - N/A   Clear
2:15 AM -0.4 °F - -7.6 °F 72% 30.15 in 10.0 mi Calm Calm - N/A   Clear
2:35 AM -0.4 °F - -7.6 °F 72% 30.16 in 10.0 mi Calm Calm - N/A   Clear
3:35 AM -2.2 °F -15.6 °F -7.6 °F 78% 30.15 in 10.0 mi NNE 6.9 mph - N/A   Clear
3:55 AM -0.4 °F - -9.4 °F 66% 30.14 in 10.0 mi Calm Calm - N/A   Clear
4:15 AM -0.4 °F - -9.4 °F 66% 30.13 in 10.0 mi Calm Calm - N/A   Clear
4:35 AM -4.0 °F - -13.0 °F 65% 30.14 in 10.0 mi Calm Calm - N/A   Clear
5:15 AM -2.2 °F - -9.4 °F 71% 30.14 in 10.0 mi Calm Calm - N/A   Clear
5:35 AM -5.8 °F - -11.2 °F 77% 30.15 in 10.0 mi Calm Calm - N/A   Clear
5:55 AM -5.8 °F - -9.4 °F 84% 30.15 in 10.0 mi Calm Calm - N/A   Clear
6:15 AM -7.6 °F - -13.0 °F 77% 30.14 in 10.0 mi Calm Calm - N/A   Clear
6:35 AM -7.6 °F - -11.2 °F 84% 30.14 in 10.0 mi Calm Calm - N/A   Clear
6:55 AM -7.6 °F -16.5 °F -11.2 °F 84% 30.14 in 10.0 mi South 3.5 mph - N/A   Clear
7:15 AM -7.6 °F -16.5 °F -11.2 °F 84% 30.15 in 10.0 mi South 3.5 mph - N/A   Clear
7:35 AM -9.4 °F - -11.2 °F 92% 30.15 in 10.0 mi Calm Calm - N/A   Clear
7:55 AM -11.2 °F - -14.8 °F 84% 30.14 in 10.0 mi Calm Calm - N/A   Clear
8:15 AM -7.6 °F - - N/A% 30.14 in 10.0 mi Calm Calm - N/A   Clear
8:35 AM -7.6 °F - -11.2 °F 84% 30.14 in 10.0 mi Calm Calm - N/A   Clear
9:15 AM -2.2 °F - -5.8 °F 85% 30.13 in 10.0 mi Calm Calm - N/A   Clear
9:35 AM -0.4 °F - -5.8 °F 78% 30.13 in 10.0 mi Calm Calm - N/A   Clear
9:55 AM 1.4 °F - -5.8 °F 72% 30.13 in 10.0 mi Calm Calm - N/A   Clear
10:15 AM 3.2 °F -4.2 °F -7.6 °F 61% 30.14 in 10.0 mi South 3.5 mph - N/A   Clear
10:35 AM 5.0 °F -2.1 °F -7.6 °F 56% 30.14 in 10.0 mi South 3.5 mph - N/A   Clear
10:55 AM 6.8 °F -2.0 °F -5.8 °F 56% 30.13 in 10.0 mi South 4.6 mph - N/A   Clear
11:35 AM 8.6 °F - -5.8 °F 52% 30.10 in 10.0 mi Calm Calm - N/A   Clear
11:55 AM 10.4 °F - -5.8 °F 48% 30.09 in 10.0 mi Calm Calm - N/A   Clear
12:15 PM 10.4 °F - -5.8 °F 48% 30.08 in 10.0 mi Calm Calm - N/A   Clear
12:35 PM 10.4 °F - -5.8 °F 48% 30.07 in 10.0 mi Calm Calm - N/A   Clear
12:55 PM 12.2 °F - -5.8 °F 45% 30.06 in 10.0 mi Calm Calm - N/A   Clear
2:15 PM 17.6 °F - -4.0 °F 38% 30.03 in 10.0 mi Calm Calm - N/A   Clear
2:35 PM 17.6 °F - -4.0 °F 38% 30.02 in 10.0 mi Calm Calm - N/A   Clear
2:55 PM 17.6 °F - -5.8 °F 35% 30.02 in 10.0 mi Calm Calm - N/A   Clear
3:15 PM 17.6 °F - -4.0 °F 38% 30.02 in 10.0 mi Calm Calm - N/A   Clear
3:35 PM 17.6 °F - -4.0 °F 38% 30.02 in 10.0 mi Calm Calm - N/A   Clear
3:55 PM 17.6 °F - -4.0 °F 38% 30.01 in 10.0 mi Calm Calm - N/A   Clear
4:15 PM 15.8 °F - -0.4 °F 49% 30.00 in 10.0 mi Calm Calm - N/A   Clear
4:35 PM 14.0 °F - -0.4 °F 53% 30.01 in 10.0 mi Calm Calm - N/A   Clear
4:55 PM 12.2 °F - 1.4 °F 62% 30.01 in 10.0 mi Calm Calm - N/A   Clear
5:15 PM 10.4 °F - -0.4 °F 62% 30.02 in 9.0 mi Calm Calm - N/A   Clear
5:35 PM 10.4 °F - 1.4 °F 67% 30.02 in 10.0 mi Calm Calm - N/A   Partly Cloudy
5:55 PM 8.6 °F - -0.4 °F 67% 30.02 in 10.0 mi Calm Calm - N/A   Mostly Cloudy
6:15 PM 8.6 °F - 1.4 °F 73% 30.01 in 10.0 mi Calm Calm - N/A   Scattered Clouds
6:35 PM 8.6 °F - 1.4 °F 73% 30.02 in 10.0 mi Calm Calm - N/A   Mostly Cloudy
7:35 PM 8.6 °F - 1.4 °F 73% 30.02 in 10.0 mi Calm Calm - N/A   Partly Cloudy
8:15 PM 6.8 °F - 1.4 °F 79% 30.02 in 10.0 mi Calm Calm - N/A   Clear
8:35 PM 6.8 °F - 1.4 °F 79% 30.01 in 10.0 mi Calm Calm - N/A   Clear
8:55 PM 8.6 °F - 3.2 °F 79% 30.01 in 10.0 mi Calm Calm - N/A   Mostly Cloudy
9:35 PM 8.6 °F - 1.4 °F 73% 30.01 in 10.0 mi Calm Calm - N/A   Clear
9:55 PM 8.6 °F - 3.2 °F 79% 30.00 in 10.0 mi Calm Calm - N/A   Scattered Clouds
10:15 PM 8.6 °F - 1.4 °F 73% 30.00 in 10.0 mi Calm Calm - N/A   Mostly Cloudy
10:55 PM 8.6 °F - 1.4 °F 73% 29.99 in 10.0 mi Calm Calm - N/A   Overcast
11:15 PM 8.6 °F - 3.2 °F 79% 29.99 in 10.0 mi Calm Calm - N/A   Overcast
11:55 PM 6.8 °F - 3.2 °F 85% 29.97 in 10.0 mi Calm Calm - N/A   Partly Cloudy